Regional Weather Roundup
Issued by NWS

Home | Current Version | Previous Version | Text Only | Print | Product List | Glossary Off
Versions: 1 2 3 4 5 6 7 8 9 10 11 12 13 14 15 16 17 18 19 20 21 22 23 24 25 26 27 28 29 30 31 32 33 34 35 36 37 38 39 40 41 42 43 44 45 46 47 48 49 50

000
ASUS43 KDMX 270601
RWRIA

WEATHER ROUNDUP FOR IOWA
NATIONAL WEATHER SERVICE DES MOINES IA
100 AM CDT THU APR 27 2017

NOTE: "FAIR" INDICATES FEW OR NO CLOUDS BELOW 12,000 FEET WITH NO
SIGNIFICANT WEATHER AND/OR OBSTRUCTIONS TO VISIBILITY.

* - THESE STATIONS ARE NOT NWS STATIONS...THUS NOT UNDER NWS
QUALITY CONTROL.  THEY ALSO DO NOT REPORT WEATHER SUCH
AS PRECIPITATION OR FOG.

IAZ001>003-012>014-020>022-031>034-043>046-270700-
   NORTHWEST IOWA

CITY           SKY/WX    TMP DP  RH WIND       PRES   REMARKS
ORANGE CITY *  CLOUDY    32  28  86 N10       29.65R WCI  24
SIOUX CITY     CLOUDY    35  29  78 NW12      29.68R WCI  27
6HR MIN TEMP:  35; 6HR MAX TEMP:  41;

SPENCER        CLOUDY    32  28  85 NW15      29.64R WCI  22
6HR MIN TEMP:  32; 6HR MAX TEMP:  37;

STORM LAKE *   CLOUDY    32  30  93 NW13      29.64R WCI  22
$$

IAZ055>058-069>071-079>083-090>094-270700-
   SOUTHWEST IOWA

CITY           SKY/WX    TMP DP  RH WIND       PRES   REMARKS
AUDUBON *      CLOUDY    36  30  80 NW10G16   29.64S WCI  28
LAMONI         CLOUDY    40  35  83 NW15      29.61F WCI  32
6HR MIN TEMP:  40; 6HR MAX TEMP:  45;

$$

IAZ047>049-059>061-072>074-084-270700-
   CENTRAL IOWA

CITY           SKY/WX    TMP DP  RH WIND       PRES   REMARKS
AMES           CLOUDY    38  35  89 NW9       29.60R WCI  31
6HR MIN TEMP:  38; 6HR MAX TEMP:  44;

DES MOINES     CLOUDY    40  34  79 NW17      29.59F WCI  31
6HR MIN TEMP:  40; 6HR MAX TEMP:  46; 6HR PCP: TRACE;

GRINNELL*      CLOUDY    39  35  86 NW14G21   29.59R WCI  31
MARSHALLTOWN   CLOUDY    38  35  89 NW20      29.56S WCI  28
6HR MIN TEMP:  38; 6HR MAX TEMP:  45;

PERRY *        CLOUDY    38  35  89 NW14      29.62S WCI  29
$$

IAZ004>006-015-016-023>025-035-036-270700-
   NORTH CENTRAL IOWA

CITY           SKY/WX    TMP DP  RH WIND       PRES   REMARKS
ESTHERVILLE    CLOUDY    30  30 100 NW15      29.61S WCI  19
6HR MIN TEMP:  30; 6HR MAX TEMP:  35;

FORT DODGE *   CLOUDY    34  27  75 NW9       29.62S WCI  26
MASON CITY     CLOUDY    35  32  88 NW17      29.58S WCI  25
6HR MIN TEMP:  35; 6HR MAX TEMP:  40; 6HR PCP: TRACE;

WEBSTER CITY * CLOUDY    36  32  87 NW17      29.57F WCI  25
IOWA FALLS *   CLOUDY    37  34  89 NW18      29.59R WCI  27
$$

IAZ007>011-017>019-026>030-037>042-050>054-066-270700-
   NORTHEAST IOWA

CITY           SKY/WX    TMP DP  RH WIND       PRES   REMARKS
CEDAR RAPIDS   LGT RAIN  40  40 100 NW14      29.51F FOG     WCI  32
6HR MIN TEMP:  40; 6HR MAX TEMP:  47; 6HR PCP:  0.17;

CHARLES CITY * CLOUDY    37  36  93 NW15      29.55R WCI  28
CLINTON *      LGT RAIN  44  43  96 NW14      29.46F FOG
DUBUQUE        LGT RAIN  41  39  93 NW13      29.47S
6HR MIN TEMP:  41; 6HR MAX TEMP:  48; 6HR PCP: TRACE;

WATERLOO       CLOUDY    40  32  73 NW10G21   29.54R WCI  33
6HR MIN TEMP:  40; 6HR MAX TEMP:  45;

$$

IAZ064-065-067-068-078-270700-
   EAST CENTRAL IOWA

CITY           SKY/WX    TMP DP  RH WIND       PRES   REMARKS
DAVENPORT      RAIN      43  41  93 NW16      29.47F FOG
6HR MIN TEMP:  43; 6HR MAX TEMP:  50; 6HR PCP:  0.12;

IOWA CITY      LGT RAIN  43  39  86 NW17G23   29.52F
6HR MIN TEMP:  43; 6HR MAX TEMP:  51; 6HR PCP:  0.10;

QUAD CITIES    RAIN      45  41  86 NW13G22   29.47S FOG
6HR MIN TEMP:  45; 6HR MAX TEMP:  51; 6HR PCP:  0.23;

$$

IAZ062-063-075>077-085>089-095>099-270700-
   SOUTHEAST IOWA

CITY           SKY/WX    TMP DP  RH WIND       PRES   REMARKS
BURLINGTON     RAIN      44  43  96 NW13G22   29.49F FOG
6HR MIN TEMP:  44; 6HR MAX TEMP:  49; 6HR PCP:  0.36;

OTTUMWA        LGT RAIN  42  40  92 NW14      29.55F
6HR MIN TEMP:  42; 6HR MAX TEMP:  48; 6HR PCP:  0.20;

$$

ABBREVIATIONS USED IN REMARKS
   TC - TEMPERATURES IN CELSIUS
  WCI - WIND CHILL INDEX
   HX - HEAT INDEX
  VSB - VISIBILITY
$$





USA.gov is the U.S. government's official web portal to all federal, state and local government web resources and services.